Location: Limerick
(52.6800°N, 8.6400°W)
Time: 05:37:43
(UTC+01:00)

ISS - All Passes

Search period start: 29 July 2014 00:00
Search period end: 08 August 2014 00:00
Orbit: 411 x 419 km, 51.6° (Epoch: 29 July)

Date Brightness Start Highest point End Pass type
(mag) Time Alt. Az. Time Alt. Az. Time Alt. Az.
29 Jul - 00:54:14 10° S 00:56:33 18° SE 00:58:52 10° E visible
29 Jul - 02:29:29 10° WSW 02:32:46 53° SSE 02:36:04 10° E visible
29 Jul - 04:06:01 10° W 04:09:23 75° S 04:12:45 10° E visible
29 Jul - 05:42:44 10° W 05:45:56 40° SSW 05:49:06 10° SE daylight
29 Jul - 07:20:46 10° WSW 07:21:58 12° SW 07:23:10 10° SSW daylight
30 Jul - 00:06:33 10° SSE 00:07:58 12° SE 00:09:22 10° ESE night (unlit)
30 Jul - 01:40:51 10° SW 01:44:02 41° SSE 01:47:14 10° E visible
30 Jul - 03:17:13 10° W 03:20:35 76° S 03:23:57 10° E visible
30 Jul - 04:53:54 10° W 04:57:11 51° SSW 05:00:28 10° ESE visible
30 Jul - 06:31:09 10° WSW 06:33:24 17° SW 06:35:38 10° S daylight
31 Jul - 00:52:18 10° SW 00:55:19 31° SSE 00:58:20 10° E visible
31 Jul - 02:28:25 10° WSW 02:31:46 71° S 02:35:08 10° E visible
31 Jul - 04:05:04 10° W 04:08:25 62° SSW 04:11:45 10° ESE visible
31 Jul - 05:42:01 10° W 05:44:45 23° SSW 05:47:30 10° SSE daylight
01 Aug - 00:03:56 10° SSW 00:06:38 23° SSE 00:09:21 10° E visible
01 Aug - 01:39:39 10° WSW 01:42:58 62° SSE 01:46:18 10° E visible
01 Aug - 03:16:15 10° W 03:19:36 71° S 03:22:58 10° ESE visible
01 Aug - 04:53:02 10° W 04:56:04 32° SSW 04:59:06 10° SE visible
01 Aug - 23:15:49 10° S 23:18:00 16° SE 23:20:11 10° ESE night (unlit)
02 Aug - 00:50:56 10° WSW 00:54:11 50° SSE 00:57:28 10° E visible
02 Aug - 02:27:26 10° W 02:30:47 76° S 02:34:09 10° E visible
02 Aug - 04:04:08 10° W 04:07:20 42° SSW 04:10:32 10° SE visible
02 Aug - 05:41:56 10° WSW 05:43:25 13° SW 05:44:55 10° SSW daylight
02 Aug - 22:28:20 10° SSE 22:29:24 11° SE 22:30:27 10° ESE visible
03 Aug - 00:02:17 10° SW 00:05:25 39° SSE 00:08:35 10° E visible
03 Aug - 01:38:36 10° W 01:41:57 75° S 01:45:19 10° E visible
03 Aug - 03:15:17 10° W 03:18:34 53° SSW 03:21:52 10° ESE visible
03 Aug - 04:52:26 10° W 04:54:48 18° SW 04:57:10 10° S visible
03 Aug - 23:13:45 10° SW 23:16:42 29° SSE 23:19:40 10° E visible
04 Aug - 00:49:47 10° WSW 00:53:08 69° S 00:56:29 10° E visible
04 Aug - 02:26:26 10° W 02:29:46 64° SSW 02:33:06 10° ESE visible
04 Aug - 04:03:19 10° W 04:06:08 25° SSW 04:08:57 10° SSE visible
04 Aug - 22:25:23 10° SSW 22:28:00 21° SSE 22:30:37 10° E visible
05 Aug - 00:01:00 10° WSW 00:04:18 60° SSE 00:07:38 10° E visible
05 Aug - 01:37:35 10° W 01:40:56 73° S 01:44:17 10° ESE visible
05 Aug - 03:14:21 10° W 03:17:25 33° SSW 03:20:29 10° SE night (unlit)
05 Aug - 21:37:19 10° S 21:39:20 15° SE 21:41:22 10° ESE daylight
05 Aug - 23:12:16 10° SW 23:15:30 48° SSE 23:18:45 10° E visible
06 Aug - 00:48:44 10° W 00:52:05 76° S 00:55:27 10° E visible
06 Aug - 02:25:26 10° W 02:28:39 44° SSW 02:31:52 10° SE visible
06 Aug - 04:03:02 10° WSW 04:04:46 13° SW 04:06:29 10° S night (unlit)
06 Aug - 20:50:17 10° SE 20:50:44 10° SE 20:51:10 10° SE daylight
06 Aug - 22:23:37 10° SW 22:26:43 37° SSE 22:29:51 10° E visible
06 Aug - 23:59:53 10° W 00:03:14 74° S 00:06:35 10° E visible
07 Aug - 01:36:33 10° W 01:39:51 56° SSW 01:43:09 10° ESE visible
07 Aug - 03:13:39 10° W 03:16:07 19° SW 03:18:35 10° SSE night (unlit)
07 Aug - 21:35:05 10° SSW 21:37:58 27° SSE 21:40:53 10° E daylight
07 Aug - 23:11:03 10° WSW 23:14:23 68° S 23:17:43 10° E visible
